Powrót do katalogu

COSMOS 839 DEB

AktywnyUNKNOWN
NORAD 10448·DEBRIS·🇷🇺 Russia

Wystrzelony Jul 8, 1976 z Plesetsk Cosmodrome

Loading…

Następne Przeloty (najbliższe 24 godziny)

TLE

ŚwieżeSource: Space-Track

Epoka: Sep 14, 2026, 07:45 UTC

1 10448U 76067Z   26257.32331966  .00000036  00000-0  26665-3 0  9995
2 10448  66.1668 224.6992 0742315  47.5285  93.8105 12.37370862265658

Śledź COSMOS 839 DEB w czasie rzeczywistym z AllMySat

Download on the App Store